sat.trackr.live / text

‹ back to catalog

UNKNOWN

NORAD 87239

UNKNOWN UNKNOWN UNKNOWN

§ Identity

Operator
Country
Launch date
Launch site
Launch vehicle
Mass (kg)
RCS (m²)

External: N2YO · Heavens-Above

§ Orbital elements

Epoch: 2026-05-22T21:04:51.523968Z

Period
98.96 min
Inclination
82.8719°
Eccentricity
0.0018030
Mean motion
14.55086285 rev/d
Perigee alt
696.3 km
Apogee alt
721.9 km
Semi-major
7,087.2 km
B*
1.6798e-3
RAAN
305.6253°
Arg perigee
243.8677°
Mean anomaly
116.0669°
Rev number
65,128

§ Raw data

UNKNOWN1 87239U          26142.87837412  .00007281  00000+0  16798-2 0  99942 87239  82.8719 305.6253 0018030 243.8677 116.0669 14.55086285651284

JSON: /api/v1/satellites/87239 · /tle

For live sub-satellite position, see the globe view (requires WebGL).

§ Visibility from observer

Set your observer location to see the next 7 days of passes ≥ 10°. The values pass through the URL so the page stays shareable.

No JS? Fill the form by hand. The geolocation button needs JavaScript.